[[{"header":{"parameterUnit":"m.s-1","parameterCategory":1,"la1":30.2992,"la2":30.254,"lo1":-89.0895,"lo2":-89.0443,"dy":0.0025,"dx":0.0025,"nx":19,"ny":19,"refTime":"2026-04-04T03:00:00:Z","depth":0,"parameterNumber":2,"parameterNumberName":"U-component_of_WINDS"},"data":[0,0,0,-1.1469,-1.1469,-1.1486,-1.1486,-1.1506,-1.1506,0,0,0,0,0,0,0,0,0,0,0,-1.1467,-1.1468,-1.1469,-1.1469,-1.1486,-1.1486,-1.1506,-1.1506,0,0,0,0,0,0,0,0,0,0,0,-1.1467,-1.1468,-1.1468,-1.1469,-1.1486,-1.1486,-1.1506,-1.1493,0,0,0,0,0,0,0,0,0,0,-1.1476,-1.1481,-1.1468,-1.1468,-1.1469,-1.1486,-1.1486,-1.1492,-1.1494,-1.1499,0,-1.1509,0,-1.1508,-1.1508,-1.1508,0,0,0,-1.1466,-1.1479,-1.148,-1.1468,-1.147,-1.1486,-1.1478,-1.1493,-1.1495,-1.1501,-1.1509,-1.1509,-1.1508,-1.1508,-1.1508,-1.1554,-1.1554,0,0,-1.1465,-1.1473,-1.1479,-1.1481,-1.1484,-1.1477,-1.1478,-1.1494,-1.1502,-1.1509,-1.151,-1.1508,-1.1508,-1.1508,-1.1553,-1.1554,0,0,0,-1.1464,-1.1472,-1.1472,-1.1481,-1.1484,-1.1478,-1.1479,-1.1501,-1.1501,-1.151,-1.1509,-1.1508,-1.1509,-1.1553,-1.1554,-1.1579,0,0,0,-1.1464,-1.1472,-1.1472,-1.1477,-1.1484,-1.1494,-1.1486,-1.15,-1.1501,-1.1508,-1.1508,-1.1509,-1.1553,-1.1553,-1.1578,-1.1591,0,0,0,-1.1465,-1.1472,-1.1476,-1.1477,-1.1485,-1.1494,-1.1494,-1.15,-1.1501,-1.1508,-1.1509,-1.1552,-1.1553,-1.1577,-1.1589,-1.1603,0,0,0,-1.1468,-1.1501,-1.1476,-1.151,-1.1485,-1.151,-1.1494,-1.1512,-1.1521,-1.1508,-1.1553,-1.1554,-1.1576,-1.1587,-1.1601,-1.1617,-1.1624,0,0,-1.1514,-1.1507,-1.1526,-1.1504,-1.1536,-1.1507,-1.1539,-1.1541,-1.1534,-1.1546,-1.1547,-1.1578,-1.1589,-1.1603,-1.1661,-1.1667,0,0,0,-1.1542,-1.1556,-1.1563,-1.1572,-1.1573,-1.1572,-1.1567,-1.1565,-1.1575,-1.1543,-1.1587,-1.1593,-1.16,-1.1607,-1.1612,-1.1616,-1.1557,-1.1557,-1.1557,-1.1621,-1.1607,-1.1635,-1.1622,-1.163,-1.162,-1.1623,-1.1618,-1.1606,-1.1615,-1.162,-1.1657,-1.1665,-1.1669,-1.1674,-1.1626,-1.1626,-1.1626,-1.1626,-1.1685,-1.1701,-1.1675,-1.1695,-1.1677,-1.1692,-1.1678,-1.1667,-1.1674,-1.1655,-1.1661,-1.1642,-1.1676,-1.1679,-1.1628,-1.1628,-1.1627,-1.1627,-1.1627,-1.1735,-1.174,-1.1736,-1.1742,-1.1746,-1.1728,-1.1734,-1.1718,-1.1703,-1.1709,-1.1709,-1.1708,-1.1704,-1.1709,-1.1709,-1.171,-1.171,-1.171,-1.171,-1.179,-1.1784,-1.1793,-1.1789,-1.1788,-1.1785,-1.1767,-1.1764,-1.1756,-1.1743,-1.1743,-1.1725,-1.1682,-1.1672,-1.1712,-1.1712,-1.1711,-1.1711,-1.1711,-1.1862,-1.1841,-1.1856,-1.1854,-1.1843,-1.1844,-1.1821,-1.1813,-1.1808,-1.1809,-1.1787,-1.1758,-1.1751,-1.1746,-1.1738,-1.1792,-1.1792,-1.1792,-1.1792,-1.1905,-1.1897,-1.1904,-1.1901,-1.1896,-1.1873,-1.1881,-1.1863,-1.1841,-1.1834,-1.1823,-1.1809,-1.1805,-1.1799,-1.1794,-1.1785,-1.1851,-1.1851,-1.1851,-1.1946,-1.1936,-1.1951,-1.193,-1.1917,-1.1905,-1.191,-1.1902,-1.1872,-1.1853,-1.1828,-1.1825,-1.1802,-1.1796,-1.1782,-1.1775,-1.1759,0,0]},{"header":{"parameterUnit":"m.s-1","parameterCategory":1,"la1":30.2992,"la2":30.254,"lo1":-89.0895,"lo2":-89.0443,"dy":0.0025,"dx":0.0025,"nx":19,"ny":19,"refTime":"2026-04-04T03:00:00:Z","depth":0,"parameterNumber":3,"parameterNumberName":"V-component_of_WINDS"},"data":[0,0,0,-7.4238,-7.4243,-7.4489,-7.449,-7.4806,-7.4809,0,0,0,0,0,0,0,0,0,0,0,-7.4172,-7.4174,-7.4237,-7.4244,-7.4489,-7.449,-7.4806,-7.4809,0,0,0,0,0,0,0,0,0,0,0,-7.4171,-7.4174,-7.4177,-7.4245,-7.4489,-7.449,-7.4805,-7.4618,0,0,0,0,0,0,0,0,0,0,-7.4379,-7.4326,-7.4173,-7.4177,-7.4246,-7.4488,-7.449,-7.4609,-7.463,-7.4698,0,-7.4765,0,-7.4793,-7.4831,-7.4832,0,0,0,-7.4238,-7.4308,-7.4369,-7.4177,-7.4249,-7.4488,-7.4377,-7.462,-7.4644,-7.4726,-7.477,-7.4781,-7.4798,-7.4833,-7.4835,-7.526,-7.5262,0,0,-7.4224,-7.4219,-7.4353,-7.4385,-7.4353,-7.4369,-7.4384,-7.4634,-7.468,-7.4771,-7.4788,-7.4803,-7.4835,-7.4838,-7.5258,-7.5261,0,0,0,-7.4189,-7.4209,-7.4264,-7.4372,-7.4416,-7.4376,-7.4394,-7.4669,-7.4687,-7.4792,-7.4807,-7.4837,-7.4841,-7.5256,-7.5259,-7.5368,0,0,0,-7.4181,-7.4189,-7.4258,-7.4257,-7.4412,-7.4547,-7.4423,-7.467,-7.4698,-7.4805,-7.4837,-7.4844,-7.5253,-7.5258,-7.5359,-7.5419,0,0,0,-7.4153,-7.4186,-7.4224,-7.4256,-7.4362,-7.4543,-7.4575,-7.4676,-7.4708,-7.4832,-7.4845,-7.5252,-7.5257,-7.5352,-7.5407,-7.5528,0,0,0,-7.4122,-7.4316,-7.4226,-7.4448,-7.436,-7.461,-7.4574,-7.4759,-7.4879,-7.4839,-7.5254,-7.5259,-7.535,-7.5399,-7.552,-7.5629,-7.5674,0,0,-7.4364,-7.4345,-7.4476,-7.4403,-7.4668,-7.4573,-7.4852,-7.4964,-7.4979,-7.5164,-7.5175,-7.5362,-7.5406,-7.5526,-7.5933,-7.5969,0,0,0,-7.4551,-7.4645,-7.4716,-7.4833,-7.4926,-7.5009,-7.508,-7.5121,-7.5279,-7.5075,-7.544,-7.5466,-7.5537,-7.5588,-7.5619,-7.5679,-7.5283,-7.5283,-7.5282,-7.4885,-7.4896,-7.5113,-7.5153,-7.5265,-7.5337,-7.5427,-7.5493,-7.547,-7.5556,-7.561,-7.5857,-7.5917,-7.594,-7.6002,-7.567,-7.567,-7.5671,-7.5671,-7.5239,-7.5373,-7.5339,-7.5537,-7.5545,-7.5709,-7.5784,-7.5762,-7.5913,-7.5817,-7.5879,-7.5772,-7.598,-7.6034,-7.5679,-7.5678,-7.5677,-7.5676,-7.5675,-7.5458,-7.5524,-7.5573,-7.5741,-7.5867,-7.5899,-7.6046,-7.6048,-7.605,-7.6112,-7.6168,-7.6167,-7.6163,-7.614,-7.614,-7.6141,-7.6142,-7.6143,-7.6143,-7.5665,-7.5717,-7.5843,-7.5958,-7.6032,-7.6128,-7.62,-7.6271,-7.6349,-7.6337,-7.6338,-7.6303,-7.6,-7.5922,-7.6156,-7.6154,-7.6152,-7.6151,-7.615,-7.6017,-7.5938,-7.6133,-7.6207,-7.634,-7.6464,-7.6465,-7.6608,-7.6666,-7.6737,-7.669,-7.6466,-7.6445,-7.6421,-7.6356,-7.6689,-7.6689,-7.6689,-7.6689,-7.62,-7.6191,-7.639,-7.6508,-7.6623,-7.6643,-7.6857,-7.6914,-7.6958,-7.6994,-7.6946,-7.6861,-7.6836,-7.683,-7.6797,-7.6737,-7.7159,-7.7159,-7.716,-7.6416,-7.6418,-7.6604,-7.6651,-7.6754,-7.6841,-7.7042,-7.7173,-7.7207,-7.7179,-7.7021,-7.7001,-7.6864,-7.6819,-7.6786,-7.6734,-7.6624,0,0]}]]